PDT,Max TemperatureF,Mean TemperatureF,Min TemperatureF,Max Dew PointF,MeanDew PointF,Min DewpointF,Max Humidity, Mean Humidity, Min Humidity, Max Sea Level PressureIn, Mean Sea Level PressureIn, Min Sea Level PressureIn, Max VisibilityMiles, Mean VisibilityMiles, Min VisibilityMiles, Max Wind SpeedMPH, Mean Wind SpeedMPH, Max Gust SpeedMPH,PrecipitationIn, CloudCover, Events, WindDirDegrees
2013-10-1,73,63,53,55,51,45,94,66,38,30.01,29.97,29.94,10,10,10,8,4,,0.00,2,,159
2013-10-2,73,63,53,48,44,36,82,54,25,30.00,29.96,29.92,10,10,10,9,4,,0.00,0,,147
2013-10-3,75,57,39,41,31,19,87,42,14,30.03,29.99,29.92,10,10,10,16,5,25,0.00,0,,7
2013-10-4,82,71,60,30,23,18,23,18,10,30.14,30.06,30.00,10,10,10,15,6,21,0.00,0,,79
2013-10-5,78,66,53,32,26,18,44,23,16,30.24,30.19,30.14,10,10,10,10,6,,0.00,0,,122
2013-10-6,82,68,55,36,31,27,41,27,14,30.17,30.12,30.04,10,10,10,13,6,,0.00,0,,107
2013-10-7,80,68,57,32,29,25,34,24,15,30.04,29.97,29.90,10,10,10,10,5,,0.00,0,,109
2013-10-8,71,60,50,37,33,28,51,34,23,29.90,29.83,29.68,10,10,10,9,5,,0.00,0,,140
2013-10-9,71,61,48,39,37,34,62,45,29,29.76,29.64,29.57,10,10,10,12,5,16,0.00,1,,196
2013-10-10,68,57,46,43,40,37,71,55,37,30.01,29.90,29.77,10,10,10,10,4,,0.00,0,,152
2013-10-11,71,61,51,43,41,39,67,51,33,30.07,30.02,29.99,10,10,10,10,6,,0.00,0,,114
2013-10-12,71,61,51,43,39,37,62,47,29,30.00,29.95,29.89,10,10,10,10,5,,0.00,0,,136
2013-10-13,71,58,44,45,41,37,87,54,31,30.06,29.98,29.90,10,10,9,12,4,,0.00,1,,338
2013-10-14,73,60,46,39,35,32,62,40,23,30.14,30.08,30.04,10,10,10,9,4,,0.00,0,,151
2013-10-15,78,64,50,37,31,23,58,31,19,30.06,30.02,29.98,10,10,1,10,5,150,0.06,0,,97
2013-10-16,77,66,55,36,29,21,44,27,19,30.14,30.09,30.02,10,10,10,12,7,,0.00,0,,117
2013-10-17,77,65,53,36,33,32,44,33,19,30.10,30.05,30.00,10,10,10,9,4,,0.00,0,,101
2013-10-18,78,64,51,37,34,28,51,34,21,30.08,30.04,30.00,10,10,10,8,2,,0.00,0,,137
2013-10-19,80,68,55,37,34,32,44,31,20,30.11,30.07,30.05,10,10,10,12,4,,0.00,0,,117
2013-10-20,78,66,55,39,35,32,51,33,21,30.05,29.99,29.94,10,10,10,10,5,,0.00,0,,117
2013-10-21,78,66,55,39,37,34,51,37,24,30.01,29.98,29.95,10,10,10,8,4,,0.00,0,,118
2013-10-22,82,68,55,36,32,27,44,27,15,30.04,30.00,29.95,10,10,10,9,6,,0.00,0,,116
2013-10-23,80,68,55,36,30,25,41,26,14,29.97,29.94,29.90,10,10,10,10,3,,0.00,0,,126
2013-10-24,73,63,53,43,33,27,63,33,22,30.07,30.00,29.94,10,10,10,10,5,,0.00,0,,113
2013-10-25,75,58,42,39,33,27,58,37,22,30.17,30.12,30.06,10,10,10,10,4,,0.00,0,,304
2013-10-26,77,65,53,39,35,30,54,34,23,30.17,30.11,30.03,10,10,10,8,4,,0.00,0,,113
2013-10-27,71,58,46,46,36,28,93,45,26,30.04,29.83,29.60,10,10,2,22,8,30,0.13,2,,149
2013-10-28,55,48,42,45,43,37,100,80,51,29.85,29.71,29.58,10,10,7,13,6,,0.01,6,,135
2013-10-29,57,50,44,45,44,41,93,76,59,30.04,29.97,29.85,10,10,10,7,3,,0.00,6,,137
2013-10-30,62,52,42,43,38,36,87,65,39,30.14,30.09,30.04,10,10,10,10,4,,0.00,0,,95
2013-10-31,66,55,44,43,40,37,81,61,40,30.18,30.13,30.10,10,10,10,9,5,,0.00,0,,132